This demonstration page uses our WeatherBlox Daily Observations layout. Learn more.

Left ArrowRight Arrow

Hourly Observations for January 21, 2017

Temp ( °F °C ) Dew Point ( °F °C ) Humidity (%) Winds ( mph kmh ) Pressure ( in mb ) Visibility ( mi km ) Precip ( " mm )
12:53 am 00:53 Cloudy 51 10.6 33 0.6 50 50 W 3 6 29.57 1001 10 16 0.00 0.00
1:53 am 01:53 Cloudy 54 12.2 32 0 43 43 W 7 11 29.56 1001 10 16 0.00 0.00
2:53 am 02:53 Cloudy 50 10 34 1.1 54 54 Calm 29.54 1000 10 16 0.00 0.00
3:53 am 03:53 Cloudy 49 9.4 37 2.8 64 64 E 5 7 29.51 999 10 16 0.00 0.00
4:53 am 04:53 Clear 47 8.3 37 2.8 69 69 E 3 6 29.47 998 10 16 0.00 0.00
5:53 am 05:53 Mostly Cloudy 48 8.9 35 1.7 61 61 SW 10 17 29.50 999 10 16 0.00 0.00
6:53 am 06:53 Partly Cloudy 50 10 35 1.7 57 57 SSW 10 17 29.46 998 10 16 0.00 0.03
7:53 am 07:53 Sunny 46 7.8 36 2.2 68 68 S 6 9 29.48 998 10 16 0.00 0.00
8:53 am 08:53 Sunny 49 9.4 36 2.2 61 61 S 3 6 29.48 998 10 16 0.00 0.00
9:53 am 09:53 Cloudy 52 11.1 36 2.2 55 55 SSW 6 9 29.49 999 10 16 0.00 0.00
10:53 am 10:53 Mostly Cloudy 56 13.3 37 2.8 49 49 W 23 37 29.52 1000 10 16 0.00 0.00
11:53 am 11:53 Cloudy 54 12.2 37 2.8 53 53 W 32 52 29.55 1001 10 16 0.00 0.00
12:53 pm 12:53 Cloudy 54 12.2 34 1.1 47 47 W 22 35 29.52 1000 10 16 0.00 0.00
1:53 pm 13:53 Mostly Sunny 58 14.4 35 1.7 42 42 WSW 28 44 29.46 998 10 16 0.00 0.00
2:53 pm 14:53 Mostly Sunny 59 15 30 -1.1 33 33 W 31 50 29.45 997 10 16 0.00 0.00
3:53 pm 15:53 Mostly Cloudy 57 13.9 29 -1.7 34 34 W 33 54 29.47 998 10 16 0.00 0.00
4:53 pm 16:53 Sunny 55 12.8 28 -2.2 35 35 W 35 56 29.50 999 10 16 0.00 0.00
5:53 pm 17:53 Sunny 52 11.1 31 -0.6 45 45 WSW 24 39 29.50 999 10 16 0.00 0.00
6:53 pm 18:53 Clear 50 10 30 -1.1 46 46 WSW 22 35 29.54 1000 10 16 0.00 0.00
7:53 pm 19:53 Mostly Clear 51 10.6 22 -5.6 32 32 W 28 44 29.57 1001 10 16 0.00 0.00
8:53 pm 20:53 Clear 50 10 24 -4.4 36 36 W 26 43 29.60 1002 10 16 0.00 0.00
9:53 pm 21:53 Clear 49 9.4 24 -4.4 38 38 W 25 41 29.61 1003 10 16 0.00 0.00
10:53 pm 22:53 Clear 48 8.9 25 -3.9 41 41 W 28 44 29.63 1003 10 16 0.00 0.00
11:53 pm 23:53 Clear 48 8.9 24 -4.4 39 39 W 30 48 29.66 1004 10 16 0.00 0.00

Powered by AerisWeather